User: anonymous   Login
Location: Unspecified
(0.0000°N, 0.0000°E)
Time: 09:13:30
(UTC+00:00)
Language:

RUBIN 2 - Orbit

View from above orbital plane
View from above orbital plane
View from above satellite
View from above satellite

Ground track
Ground track

The orbit data is extracted from the following two-line orbital elements,

1 27605U 02058A   21166.85016256 -.00000053  00000-0  12989-4 0  9996
2 27605  64.5562 329.0960 0041053  22.7575 337.5335 14.75175982994774
Epoch (UTC): 15 June 2021 20:24:14
Eccentricity: 0.0041053
inclination: 64.5562°
perigee height: 616 km
apogee height: 673 km
right ascension of ascending node: 329.0960°
argument of perigee: 22.7575°
revolutions per day: 14.75175982
mean anomaly at epoch: 337.5335°
orbit number at epoch: 99477

The dashed part of the orbit path shows where the satellite is in the earth's shadow,  

DLR